Theta_e
327 335 335 325 312 310 305 307 313 311 311 319 321 318 317 319 316 313 338 340 341 343 346 348 346 347 348 348 348 347 347 347 345 346 345 344 342 340 339 339 341 338 339 340 339 338 337 338 337
322 326 325 319 307 303 304 312 309 314 318 321 322 320 318 317 328 331 335 341 342 345 346 347 343 346 349 348 347 347 347 347 346 345 344 343 341 339 338 338 337 337 337 338 336 336 336 338 338
319 318 314 310 307 303 304 311 313 317 320 320 319 323 321 321 330 333 340 341 342 345 345 346 343 347 348 348 347 347 347 346 346 344 343 340 339 338 337 337 337 336 336 337 335 336 336 336 337
317 317 313 305 304 309 309 311 313 316 319 321 321 316 325 332 332 336 340 341 343 343 344 342 345 348 347 347 346 347 347 346 346 343 340 339 338 337 338 337 337 335 335 336 336 334 335 334 334
317 314 305 304 305 310 313 314 313 315 317 318 320 316 320 330 337 339 340 341 342 341 345 344 345 346 347 347 347 346 346 345 344 343 342 342 341 340 340 339 338 336 335 334 335 334 334 333 331
312 311 302 301 304 309 310 313 314 315 318 318 318 317 321 334 335 338 340 341 343 341 343 342 339 341 344 345 345 345 345 345 344 343 342 342 341 339 339 339 339 337 335 334 334 333 331 330 330
308 307 303 305 305 304 306 313 312 314 316 316 319 314 324 330 336 339 340 341 342 341 340 337 344 342 337 340 341 342 343 343 343 343 341 339 338 338 338 339 340 337 335 333 332 331 330 329 328
310 305 303 304 302 303 308 311 315 315 315 321 321 313 316 330 337 339 340 340 340 339 337 338 340 342 344 344 335 337 339 339 339 339 336 333 333 333 334 334 336 337 336 334 332 331 330 329 329
311 302 300 303 303 304 307 308 315 318 316 318 320 321 326 335 337 337 336 336 337 336 338 340 340 340 341 342 338 333 333 335 335 335 330 329 332 333 331 329 332 336 335 336 335 333 332 332 330
307 303 302 307 306 304 305 306 311 313 314 315 319 325 331 334 334 331 330 330 335 334 336 338 339 339 339 338 342 342 342 341 340 339 338 335 334 332 331 327 328 331 331 332 332 333 332 328 328
307 302 306 305 305 305 303 305 310 312 311 315 316 322 329 331 331 331 331 333 334 334 336 337 337 338 339 338 340 339 340 338 337 335 336 336 333 333 333 332 330 331 325 329 330 330 329 329 329
302 307 308 304 303 302 302 306 305 309 314 318 320 325 328 328 329 330 331 333 333 336 336 336 338 337 338 339 338 338 337 336 335 335 334 335 334 333 331 330 330 332 331 329 330 329 329 328 328
303 304 308 308 304 302 303 303 304 305 311 318 319 325 326 328 329 331 332 333 334 334 336 334 338 336 337 337 336 337 337 336 336 335 336 334 332 332 331 330 330 330 330 329 328 328 327 328 328
304 305 306 307 305 302 300 302 303 305 309 309 314 320 325 327 328 330 331 331 332 334 335 336 335 338 337 335 336 336 336 337 336 336 336 335 333 333 331 329 329 329 330 330 329 328 328 328 329
299 295 300 305 307 304 302 298 299 305 307 305 306 310 320 325 328 329 331 332 333 334 335 335 334 336 337 336 336 336 336 336 336 334 334 335 335 333 332 331 330 330 330 329 329 328 329 328 329
294 296 292 300 303 301 299 293 302 306 305 304 306 307 308 315 325 329 332 333 334 334 334 336 334 334 335 335 336 336 336 335 335 336 335 335 334 334 332 330 330 331 330 329 329 327 326 326 326
292 289 292 294 301 300 297 295 301 303 302 303 304 306 307 311 314 325 330 333 334 334 334 334 333 331 333 335 336 337 336 335 335 335 335 335 334 334 333 332 331 331 330 329 327 327 326 324 324
285 287 290 292 296 295 295 295 300 299 299 299 301 303 306 306 310 317 327 331 333 335 335 336 334 331 333 334 337 336 335 335 335 335 334 335 334 334 334 333 333 333 330 328 328 327 328 326 326
289 288 288 291 294 291 292 294 296 300 299 299 299 300 301 303 307 312 321 330 332 333 334 335 334 334 332 333 333 332 331 333 334 336 336 336 335 335 335 333 332 331 330 329 329 327 325 325 327
289 287 286 291 292 291 291 291 295 297 298 300 300 301 301 302 303 306 308 314 329 332 333 334 334 335 337 337 333 332 331 335 334 335 335 336 337 336 335 334 332 332 330 329 329 328 325 325 326
289 286 286 286 289 292 290 288 291 295 297 298 299 300 301 302 302 304 305 307 312 327 331 332 333 335 336 337 335 334 335 335 333 333 334 337 337 337 336 335 332 331 331 329 330 328 325 323 326
285 291 289 288 285 280 289 281 291 293 294 295 296 298 299 301 302 303 304 305 307 310 319 332 333 334 335 337 334 331 331 330 332 333 336 336 337 336 335 334 332 331 331 330 330 331 329 327 322
288 292 289 288 285 285 285 282 287 292 289 292 295 296 298 299 298 299 300 301 302 304 308 311 327 333 334 335 334 333 331 333 334 334 335 333 334 334 334 333 332 331 330 330 329 327 327 327 325
293 290 289 288 286 279 284 283 284 288 290 292 293 295 295 297 299 300 301 302 304 305 303 306 308 320 330 333 332 332 330 332 331 332 331 330 331 330 326 329 329 329 328 328 328 329 326 326 325
291 286 279 277 278 277 285 283 285 291 292 292 293 295 297 298 297 297 297 297 299 302 306 308 308 314 314 316 313 316 320 319 324 324 325 325 320 316 315 320 321 320 322 324 325 325 325 324 323
288 287 281 274 276 279 284 279 285 293 294 294 294 296 295 294 294 293 294 294 294 296 299 302 305 303 302 302 302 303 304 305 303 305 306 307 307 308 311 313 314 312 311 313 313 311 311 311 309
287 284 290 282 279 279 283 285 289 292 292 293 294 293 292 292 292 291 291 291 291 292 293 295 296 297 298 297 297 297 298 299 298 299 300 300 302 304 305 307 307 307 307 308 306 304 305 304 304
290 292 282 284 275 274 280 282 283 288 290 292 292 291 291 291 290 289 289 289 290 290 291 291 291 291 292 293 293 293 294 295 296 296 296 296 298 300 301 301 301 300 300 301 301 300 301 300 299
287 285 286 286 283 277 276 281 290 291 293 292 291 291 291 290 289 288 288 288 288 289 288 288 288 288 288 289 290 290 290 291 291 291 292 292 293 295 295 296 295 295 294 295 296 296 296 295 295
290 288 288 281 280 283 281 281 291 293 293 293 289 291 290 289 288 287 287 287 286 286 286 286 286 286 286 287 287 286 287 287 287 287 288 289 290 292 292 292 291 290 290 291 291 291 292 291 291
Wind_Speed
9 6 3 5 7 7 11 3 5 3 3 5 7 4 6 8 3 4 8 6 18 19 19 19 17 17 16 15 15 14 15 14 14 14 14 14 12 12 12 11 11 10 10 13 12 13 12 12 13
9 2 5 5 8 10 8 7 7 6 4 6 7 4 4 8 8 10 11 9 17 18 18 18 15 17 17 16 15 14 14 15 15 14 14 13 12 11 11 11 11 10 10 12 12 12 12 12 12
9 6 8 5 11 12 1 5 4 8 7 9 6 4 2 6 7 13 12 16 18 18 17 17 15 16 17 17 15 14 13 15 15 14 12 11 11 11 11 10 10 10 10 11 11 11 11 12 11
6 5 5 9 12 13 6 5 2 8 7 5 7 7 5 6 6 7 17 19 17 17 15 18 15 15 18 17 15 14 15 14 14 13 11 11 12 11 11 10 9 10 9 10 10 9 10 11 11
7 5 9 11 15 9 2 2 3 8 10 10 8 5 4 5 8 13 17 17 17 13 13 17 12 14 16 15 14 14 15 13 13 14 12 11 11 9 12 11 12 11 9 9 9 8 8 9 8
6 4 9 13 13 9 5 3 5 9 8 8 8 4 7 7 11 14 15 16 18 15 15 16 12 13 14 14 13 12 12 12 12 13 14 12 10 9 9 8 10 14 11 8 8 7 6 6 6
7 7 13 14 9 6 8 0 7 8 7 8 1 8 7 9 11 14 14 15 16 16 15 15 14 14 12 11 11 10 10 10 11 12 13 11 10 9 6 7 9 10 12 8 7 6 5 5 4
3 4 14 9 11 13 3 3 4 9 9 4 0 5 7 11 12 12 14 14 14 15 16 15 12 13 14 13 10 9 8 8 8 8 8 12 9 9 6 6 7 9 11 9 7 6 5 3 3
3 6 10 15 9 8 2 5 3 4 2 6 6 6 5 18 14 13 13 11 13 13 14 16 16 14 11 13 11 9 8 7 7 7 7 7 7 8 10 7 10 7 6 7 9 8 6 4 5
10 10 14 8 7 7 9 6 7 5 9 8 8 6 13 18 16 15 13 13 16 15 16 13 14 14 11 8 13 11 10 9 9 9 10 8 7 9 7 8 6 5 5 4 7 7 5 5 6
8 15 15 9 8 10 10 10 5 8 11 10 12 12 15 15 16 16 15 15 15 14 9 14 11 13 12 8 8 6 6 6 7 10 9 9 6 5 4 4 5 6 6 6 7 6 6 8 4
12 13 16 7 7 7 13 12 10 10 8 8 3 17 15 17 17 18 18 17 17 18 16 11 13 10 11 8 8 9 7 7 7 9 11 7 5 5 6 5 6 6 5 7 5 4 5 5 6
14 18 15 17 9 10 14 14 16 13 10 3 2 10 14 14 15 15 14 14 16 17 18 14 14 12 10 9 8 8 8 8 9 9 10 8 8 6 7 6 5 6 6 6 6 6 5 6 7
4 13 19 15 13 7 12 17 5 11 11 9 6 9 12 14 15 14 15 16 16 16 17 17 13 12 11 10 9 7 7 8 8 7 8 11 8 7 7 6 6 6 6 6 6 6 6 6 6
10 10 12 18 17 13 8 20 19 18 10 8 11 10 10 13 14 16 15 15 16 15 16 17 16 12 12 11 9 6 6 8 8 7 10 11 10 8 7 5 6 6 6 7 6 6 6 6 6
11 13 17 12 16 7 11 17 14 17 15 15 15 11 13 12 14 14 15 15 14 15 16 16 12 12 11 10 8 6 6 6 6 7 7 9 10 10 7 6 5 4 5 6 6 6 6 5 5
9 14 19 17 10 13 16 12 18 5 6 14 15 15 13 11 13 13 14 13 15 15 15 15 14 15 13 11 10 9 10 8 7 7 6 8 10 10 9 6 5 6 5 5 5 3 3 3 4
10 16 18 15 13 13 17 16 14 1 6 13 12 11 13 14 14 12 12 13 13 14 15 15 13 14 12 9 8 7 7 7 8 8 6 10 10 12 9 7 7 7 7 5 3 5 4 4 4
6 9 12 11 5 5 18 18 18 16 11 10 8 10 13 13 13 9 7 10 12 13 15 16 16 15 11 9 9 7 7 7 8 9 12 11 10 12 10 7 7 6 6 7 7 6 5 5 6
13 11 10 11 3 6 13 15 16 17 16 18 16 16 13 10 11 11 10 10 13 14 15 16 16 16 15 11 8 5 5 8 9 8 10 12 11 11 10 9 7 6 5 6 6 7 4 3 3
15 16 12 5 4 9 12 18 20 18 18 17 16 17 15 14 12 9 9 10 10 13 15 14 15 15 15 15 9 7 7 9 8 8 8 9 11 10 10 10 9 9 6 5 7 6 7 4 5
16 13 14 13 6 7 4 8 12 14 13 13 15 15 15 13 9 9 8 5 7 7 7 12 14 15 14 15 11 12 11 9 9 9 8 7 10 11 12 12 11 10 5 5 5 6 7 7 5
13 12 10 12 11 11 16 9 12 10 11 12 9 4 4 5 6 6 6 7 7 7 4 6 9 12 13 13 14 10 10 8 8 7 7 8 6 8 10 9 9 9 6 4 4 4 8 6 6
4 7 6 7 9 13 17 14 11 13 12 7 6 4 3 4 5 6 7 7 6 5 3 5 7 10 9 8 12 10 11 10 5 4 4 3 4 3 5 4 2 0 0 2 3 5 5 5 6
13 13 6 6 8 10 2 14 16 4 3 1 3 2 5 6 7 7 9 9 9 9 8 4 2 6 10 8 10 8 3 6 5 3 1 5 5 4 5 4 4 4 4 3 2 1 2 2 3
17 17 6 8 9 9 6 10 5 2 5 3 3 5 6 6 6 8 9 9 10 11 11 10 10 9 10 11 11 10 10 7 7 8 6 7 6 5 5 5 6 6 5 5 6 5 5 5 6
14 20 15 5 3 3 7 9 4 6 5 5 4 5 5 6 7 8 9 9 10 11 12 11 11 12 12 12 10 11 11 11 10 10 9 7 7 6 7 7 8 7 7 7 7 5 6 6 5
16 12 13 8 7 9 10 13 9 9 11 8 7 5 5 6 7 8 9 10 10 11 11 12 13 13 12 12 11 10 11 11 11 10 11 10 9 7 9 9 9 9 9 9 8 6 7 7 5
14 11 10 10 10 8 11 11 6 9 10 10 6 5 7 7 7 8 8 9 10 11 12 12 12 13 13 12 12 12 11 12 11 11 11 10 10 10 11 10 10 10 10 10 9 8 8 9 8
19 20 17 7 10 10 8 5 1 5 3 7 8 8 8 7 8 7 8 9 10 11 11 12 12 12 12 11 11 12 12 12 12 12 11 10 11 10 10 11 11 11 10 10 10 10 9 9 9
Wind_Direction
229 224 213 221 233 233 248 196 251 179 196 150 158 168 193 347 358 20 145 147 141 142 144 155 152 157 155 153 152 150 150 150 156 145 134 129 125 122 117 114 107 110 118 108 102 91 85 88 93
306 228 232 263 249 216 219 166 190 187 92 152 148 168 193 106 74 115 136 158 152 142 150 153 153 160 157 150 153 155 156 150 146 143 136 130 130 129 122 119 115 117 120 111 109 91 85 84 95
272 256 264 227 234 255 19 139 189 125 139 166 181 276 75 85 102 142 117 152 149 139 160 143 155 160 158 154 160 158 159 151 145 135 131 136 135 128 123 120 118 124 121 118 113 93 85 83 83
295 199 234 247 234 247 292 75 356 150 153 196 224 194 108 30 125 125 141 147 152 149 133 139 156 156 158 158 159 154 156 151 139 132 144 141 137 133 133 128 121 125 126 115 106 104 90 86 85
233 258 250 232 246 248 242 324 291 190 181 180 208 165 99 108 107 133 149 152 149 127 139 153 151 156 157 158 159 159 158 152 142 146 147 147 159 157 139 147 141 121 118 124 116 112 99 92 89
268 269 240 235 227 239 265 258 251 230 177 157 193 233 110 116 143 145 153 155 140 153 143 152 153 154 156 159 162 162 160 157 156 156 152 165 145 119 133 139 149 135 129 127 126 122 115 107 97
268 263 253 250 256 262 266 64 233 239 184 177 318 200 92 156 144 151 160 150 158 152 150 156 163 157 148 155 161 165 168 165 167 166 163 153 145 130 130 120 133 141 122 144 141 142 141 130 115
277 260 256 243 245 240 91 253 326 258 199 48 276 186 166 148 143 156 160 152 163 153 161 160 159 170 166 166 157 162 167 174 180 174 157 144 142 137 147 149 138 130 139 154 157 158 159 150 138
231 239 238 231 241 245 100 273 110 355 214 208 163 14 96 129 149 160 162 146 169 165 171 166 163 180 170 169 160 148 146 146 150 145 142 161 167 174 161 188 141 149 157 172 173 175 178 188 199
223 233 234 245 280 293 327 309 314 233 201 191 167 114 130 142 161 158 170 172 177 178 176 170 173 173 162 171 157 178 167 175 184 180 168 196 184 186 191 151 160 178 190 195 214 193 185 223 251
232 240 232 244 270 309 308 299 250 257 227 207 198 161 158 162 167 173 180 186 179 177 189 176 180 181 164 172 165 178 178 189 188 188 187 206 191 175 193 176 188 202 194 214 195 203 225 238 276
258 227 246 244 268 310 288 294 270 252 251 12 302 155 169 179 184 186 186 184 187 180 182 203 180 185 176 182 180 184 179 189 186 189 186 183 191 185 199 208 195 201 188 224 232 235 245 254 250
233 261 232 244 257 271 288 273 275 275 266 142 23 161 183 188 196 193 192 192 190 189 182 185 209 186 186 190 191 191 191 188 195 188 190 191 192 190 204 204 204 202 210 211 224 226 231 233 242
229 246 260 241 242 257 269 271 255 258 255 251 208 204 199 199 200 197 198 199 196 193 193 183 193 205 190 196 193 193 196 188 198 194 192 203 200 193 203 208 212 215 217 214 224 229 224 231 239
266 252 247 249 242 247 287 263 243 253 243 266 244 232 219 215 201 207 205 206 200 199 194 191 189 195 212 198 201 199 198 200 200 197 203 200 209 206 206 207 214 218 218 229 227 234 237 249 251
230 240 250 241 221 222 216 260 244 240 242 244 253 249 228 222 222 215 207 207 202 204 196 187 178 190 202 204 200 202 200 201 204 203 201 202 207 215 209 217 217 219 221 227 234 237 246 251 258
232 241 230 249 241 209 213 250 244 237 231 243 252 250 243 239 234 220 221 209 204 207 199 187 187 195 191 211 204 206 206 204 208 209 205 199 210 211 217 213 210 213 211 220 232 229 230 256 257
223 235 249 244 203 217 233 239 246 241 249 249 252 253 251 243 241 231 216 218 211 205 202 193 183 200 192 197 215 207 205 208 211 209 205 209 206 208 211 220 218 214 216 219 181 239 247 248 289
302 256 254 225 155 233 241 243 245 243 218 246 245 234 246 243 255 239 260 216 212 210 209 199 189 195 189 195 202 205 203 205 211 212 209 207 208 204 207 215 218 209 217 225 222 223 224 232 230
242 238 227 277 257 240 261 249 255 256 251 248 245 254 239 242 246 242 227 224 221 215 213 209 208 196 194 188 197 187 195 222 217 211 212 210 208 209 205 210 215 205 206 217 225 202 218 228 236
226 231 232 243 315 265 277 263 250 250 241 239 238 250 256 252 239 246 223 220 221 218 219 217 213 207 206 204 166 203 198 214 211 215 218 212 213 209 209 210 215 218 207 217 205 196 206 227 233
234 220 243 259 257 246 261 282 239 225 219 229 236 237 244 250 254 253 265 224 224 233 251 235 219 214 208 203 186 195 205 200 216 209 213 205 206 216 215 217 219 223 211 200 223 212 226 231 223
246 253 212 231 243 272 246 258 248 234 222 236 209 217 260 341 335 307 339 352 332 344 266 259 257 227 213 208 208 190 210 224 220 208 194 211 200 211 217 215 220 222 223 192 196 227 231 230 226
224 196 210 235 242 250 241 226 242 227 223 194 141 111 65 30 29 35 36 17 19 7 282 250 233 230 230 208 214 210 210 227 222 169 155 176 165 146 39 15 289 18 192 202 225 225 235 234 238
193 179 179 203 204 246 196 226 236 188 125 316 296 95 55 45 37 30 30 32 26 27 25 37 224 65 28 38 42 36 26 42 73 48 59 71 76 61 36 30 58 29 29 40 33 255 229 245 237
200 198 205 216 217 245 147 237 224 298 73 106 110 96 68 54 51 47 40 42 39 34 42 48 64 64 49 52 56 55 54 61 63 60 65 71 64 60 42 58 56 61 42 50 55 57 50 44 50
193 223 233 314 181 291 203 251 190 171 172 174 148 103 68 61 60 60 56 52 52 52 47 53 64 66 63 63 61 59 61 69 73 67 61 57 58 60 55 51 65 51 48 59 72 63 58 58 49
220 195 212 214 235 234 240 234 260 192 192 182 163 123 109 91 79 70 66 64 63 62 63 64 65 66 63 64 61 61 62 64 68 71 71 65 61 56 64 61 59 54 46 45 54 53 43 61 44
215 215 239 227 237 248 255 246 2 180 187 186 140 143 121 104 88 79 74 70 68 69 65 65 63 64 64 65 68 68 66 67 66 66 65 65 62 59 61 59 57 53 49 43 51 54 47 55 49
246 213 206 215 202 235 287 265 60 76 119 124 152 139 114 104 97 86 77 72 68 64 61 62 61 62 61 62 67 69 70 69 68 66 63 62 66 62 66 66 63 56 51 49 51 51 51 54 52